Skip Page Navigation
NASA JPL Caltech
NASA Logo - Jet Propulsion Laboratory + View the NASA Portal
+ Center for Near-Earth Object Studies
JPL Home Earth Solar System Stars & Galaxies Technology
JPL Solar System Dynamics
BODIES ORBITS EPHEMERIDES TOOLS PHYSICAL DATA DISCOVERY FAQ SITE MAP
JPL Small-Body Database Browser
Search: [ help ]  
59322 (1999 CB95)
Classification: Main-belt Asteroid          SPK-ID: 2059322
Ephemeris | Orbit Diagram | Orbital Elements | Mission Design | Physical Parameters | Discovery Circumstances | Close-Approach Data ]

[ show orbit diagram ]
Orbital Elements at Epoch 2459000.5 (2020-May-31.0) TDB
Reference: JPL 19 (heliocentric ecliptic J2000)
 Element Value Uncertainty (1-sigma)   Units 
e .142935472807642 3.7186e-08  
a 2.438636255124842 1.0601e-08 au
q 2.090068628992716 9.0157e-08 au
i 3.3932271028838 4.2023e-06 deg
node 68.56225860817048 7.535e-05 deg
peri 145.7748879952913 7.7153e-05 deg
M 158.0895558271382 1.8536e-05 deg
tp 2458389.671004292333
(2018-Sep-28.17100429)
6.9809e-05 TDB
period 1390.973852157611
3.81
9.0704e-06
2.483e-08
d
yr
n .2588114790523097 1.6877e-09 deg/d
Q 2.787203881256969 1.2117e-08 au
  Orbit Determination Parameters
   # obs. used (total)      777  
   data-arc span      9790 days (26.80 yr)  
   first obs. used      1993-10-11  
   last obs. used      2020-07-31  
   planetary ephem.      DE431  
   SB-pert. ephem.      SB431-N16  
   condition code      0  
   norm. resid. RMS      .57109  
   source      ORB  
   producer      Otto Matic  
   solution date      2020-Aug-25 05:21:18  

Additional Information
 Earth MOID = 1.08438 au 
 Jupiter MOID = 2.17907 au 
 T_jup = 3.486 
[ show covariance matrix ]

Ephemeris | Orbit Diagram | Orbital Elements | Mission Design | Physical Parameters | Discovery Circumstances | Close-Approach Data ]

Physical Parameter Table
Parameter Symbol Value Units Sigma Reference Notes
absolute magnitude H 15.7   n/a MPO502545  
rotation period rot_per 13.26 h n/a LCDB (Rev. 2019-August); Warner et al., 2009 Result based on less than full coverage, so that the period may be wrong by 30 percent or so.
Published Reference List:
[Chang, C.-H.; Lin, H.-W.; Ip, W.-H.; Chen, W.-P.; et al. (2019) ArXiv:1901.08719.]

59322 (1999 CB95)          Discovered 1999-Feb-10 by LINEAR at Socorro
Reference: 20030614/Numbers.arcLast Updated: 2004-04-19

[ hide close-approach data ]
Close-Approach Data   ...sorted by Date/Time (TDB)
Date/Time (TDB) Time Uncertainty
(days_HH:MM)
Body Nominal Distance (au) Minimum Distance (au) Maximum Distance (au) V-relative (km/s) V-infinity (km/s) JD (TDB) Time Uncertainty (minutes) Semi-major axis (km) Semi-minor axis (km) range-LOV angle (deg) N-sigma BP Orbit Ref. Reference Modified
1913-Jan-25 10:57 < 00:01 Amphi 0.0319283201069079 0.0319144197466185 0.0319422213750491 4.17093258511721 4.17093254194903 2419792.956148734 0.394158091886607 743.182793988862 49.1888914926207 -21.2631997151351 35701.7775492174 T 19 CATAB v2.0f-lin.ifort 2020-Aug-25 05:21:33 2020-Aug-25 05:21
1926-Apr-29 11:19 < 00:01 Eunom 0.0471600987507248 0.0471559873361215 0.0471642132465203 7.78214169690278 7.78214165865378 2424634.971225869 0.308477425174811 646.905394362372 41.3420198673859 -71.8743174300982 162170.892755915 T 19 CATAB v2.0f-lin.ifort 2020-Aug-25 05:21:33 2020-Aug-25 05:21
2027-May-26 07:18 < 00:01 Amphi 0.035701214241842 0.0356986348695503 0.0357037937001856 4.51727469830052 4.51727466265429 2461551.804189388 0.365477918835592 159.724164045431 49.7513551320814 38.6319607077296 71900.2145275437 T 19 CATAB v2.0f-lin.ifort 2020-Aug-25 05:21:33 2020-Aug-25 05:21

Alternate Designations
 1999 CB95 = 1993 UY8 
Ephemeris | Orbit Diagram | Orbital Elements | Mission Design | Physical Parameters | Discovery Circumstances | Close-Approach Data ]
ABOUT SSD CREDITS/AWARDS PRIVACY/COPYRIGHT GLOSSARY LINKS
FirstGov 2020-Sep-25 08:16 UT
(server date/time)  
NASA Home Page
Site Manager:   Ryan S. Park
Webmaster  Alan B. Chamberlin